Location: Unspecified
(40.5530°N, 74.2920°W)
Time: 04:17:09
(UTC+00:00)

Daily predictions for brighter satellites

Satellite Brightness Start Highest point End
(mag) Time Altitude Azimuth Time Altitude Azimuth Time Altitude Azimuth
ATLAS CENTAUR R/B 3.9 00:00:07 10° WSW 00:07:23 30° NW 00:08:34 27° NNW
Cosmos 2279 Rocket 4.5 00:01:24 10° SSW 00:07:29 58° W 00:13:38 10° N
Okean O Rocket 3.6 00:04:02 10° SSW 00:07:52 29° W 00:11:45 10° NW
COSMOS 2455 3.5 00:11:41 10° SW 00:17:31 51° WNW 00:18:39 45° NNW
CZ-4C R/B 3.5 00:45:28 10° NW 00:50:43 52° NNW 00:50:43 52° NNW
Cosmos 1980 Rocket 4.0 00:55:01 10° NW 00:58:02 26° WNW 00:58:02 26° WNW
Cosmos 2082 Rocket 4.3 01:02:25 10° WSW 01:06:10 22° WNW 01:06:10 22° WNW
Cosmos 2082 Rocket 4.4 08:18:48 20° E 08:18:48 20° E 08:21:09 10° ESE
CENTAUR R/B 4.4 08:21:00 21° ESE 08:21:30 21° ESE 08:26:09 10° ENE
USA 215 4.0 09:06:19 10° E 09:12:22 42° NNE 09:13:53 37° N
COSMOS 2455 4.1 09:21:38 29° S 09:21:38 29° S 09:24:34 10° S
Cosmos 2369 Rocket 4.5 09:22:50 10° SSE 09:27:05 23° E 09:31:21 10° NE
Cosmos 841 Rocket 3.4 09:35:23 81° SSE 09:35:23 81° SSE 09:40:17 10° SSE
Envisat 3.4 09:44:45 10° NNE 09:49:48 61° E 09:54:48 10° S
Cosmos 1900 4.5 09:51:18 57° SW 09:51:18 57° SW 09:55:49 10° SSE
Cosmos 2344 3.5 09:51:39 41° W 09:53:56 56° NW 10:01:30 10° NNE
Cosmos 2151 2.8 09:50:41 10° S 09:54:58 89° WNW 09:59:17 10° N
FALCON 9 R/B 4.5 09:39:58 27° WSW 09:56:57 69° S 10:04:56 10° ESE
Gblst 52 Del rocket 4.4 09:56:30 50° W 09:57:54 63° NNW 10:04:33 10° NE
SJ-12 4.0 09:55:20 10° NNE 09:59:29 78° ESE 10:03:37 10° S
Cosmos 2082 Rocket 2.4 10:00:43 46° WSW 10:00:47 46° WSW 10:06:05 10° S
Cosmos 968 Rocket 3.7 09:59:01 10° S 10:04:09 71° ESE 10:09:17 10° NNE
Cosmos 2297 3.6 09:59:44 10° SSW 10:05:28 73° WNW 10:11:13 10° NNE
Cosmos 1464 Rocket 4.3 10:05:02 40° WNW 10:05:42 41° W 10:11:26 10° SSW
Cosmos 1570 Rocket 3.9 10:03:00 25° NNW 10:06:09 88° ENE 10:11:24 10° SSE
Cosmos 1943 Rocket 2.1 10:01:09 10° SSW 10:06:48 71° WNW 10:12:28 10° NNE
CZ-2C R/B 2.8 10:02:15 10° SSE 10:07:46 76° ENE 10:13:13 10° N
SKYMED 2 3.7 10:03:48 10° SSE 10:08:07 74° ENE 10:11:48 14° N
YAOGAN 6 3.8 10:06:07 10° N 10:11:29 30° SSW 10:13:25 10° SSW
SAR-Lupe-3 4.5 10:07:01 10° NNE 10:10:37 84° ESE 10:14:12 10° SSW
CENTAUR R/B 2.4 10:08:15 29° WSW 10:11:18 61° NW 10:18:09 10° NNE
Meteor 2-3 Rocket 3.6 10:06:03 10° SSW 10:11:39 73° W 10:17:22 10° N
NOSS 3-2 (A) 3.6 10:12:42 37° W 10:14:15 45° NW 10:20:21 10° NNE
Cosmos 2278 Rocket 4.2 10:20:57 12° NNW 10:20:57 12° NNW 10:21:51 10° NNW
NOSS 3-2 (C) 3.2 10:14:51 13° SW 10:19:45 72° NW 10:26:02 10° NNE
Cosmos 1782 2.6 10:18:53 16° N 10:21:57 88° W 10:25:53 10° S
Gbstr 26 Del rocket 2.7 10:22:06 42° NW 10:23:22 86° NNE 10:27:43 10° SE
Cosmos 1814 Rocket 4.0 10:21:01 27° NW 10:23:38 55° WSW 10:28:37 10° S
Cosmos 1862 4.3 10:21:01 10° SSE 10:24:47 47° E 10:28:35 10° NNE
Cosmos 1867 3.5 10:22:38 21° NNW 10:26:23 87° SW 10:31:49 10° SSE
Meteor 1-26 Rocket 4.2 10:20:45 10° NNW 10:26:43 75° W 10:32:29 10° S
Genesis I 4.3 10:24:57 17° NNW 10:27:51 43° NE 10:31:44 10° SE
Cosmos 1812 3.2 10:24:15 10° N 10:28:04 60° E 10:31:50 10° SSE
Meteor 1-31 Rocket 2.7 10:27:37 10° N 10:31:26 59° WNW 10:35:16 10° SSW
BREEZE-M DEB (TANK) 4.4 10:15:40 10° SW 10:33:21 66° SSE 10:37:39 10° ENE
H-2A R/B 3.8 10:30:36 10° SE 10:34:19 31° ENE 10:38:07 10° N
Cosmos 2208 Rocket 4.0 10:29:54 13° NNW 10:34:41 65° WSW 10:39:59 10° S
APEX 2.6 10:34:17 47° WNW 10:34:46 55° WSW 10:37:53 10° SSE
Hubble Space Telescope 3.2 10:36:25 10° SW 10:38:20 13° S 10:40:15 10° SSE
FALCON 9 DEB 3.5 10:39:41 33° WNW 10:40:35 42° NNW 10:43:50 10° NE
Cosmos 1766 Rocket 3.5 10:37:39 10° S 10:42:00 84° E 10:46:22 10° N
BREEZE-M DEB (TANK) 4.2 10:26:33 16° WNW 10:42:20 77° SW 10:47:36 10° SE
CZ-4C R/B 2.6 10:39:58 10° S 10:43:09 74° WSW 10:46:00 12° NNW
Landsat 5 3.7 10:40:28 10° S 10:44:53 57° W 10:49:20 10° NNW
Cosmos 921 Rocket 3.0 10:40:51 10° NNW 10:45:15 89° W 10:49:43 10° SSE
Cosmos 1933 4.3 10:45:42 23° WNW 10:46:48 26° W 10:50:10 10° SSW
IRAS Rocket 4.3 10:42:22 10° SSE 10:47:54 80° ENE 10:53:25 10° NNW
USA 238 DEB 3.9 10:41:53 10° WSW 10:48:04 45° NW 10:54:36 10° NNE
USA 238 3.9 10:41:59 10° WSW 10:48:10 46° NW 10:54:43 10° NNE
FALCON 9 DEB 4.4 10:49:23 19° NNW 10:49:23 19° NNW 10:51:32 10° NNE
Cosmos 2263 4.3 10:44:42 10° SSW 10:50:22 84° ESE 10:56:08 10° NNE
USA 215 3.4 10:48:42 10° SE 10:55:10 64° SW 11:01:13 12° NW
Cosmos 1151 Rocket 3.0 10:51:45 10° NNW 10:56:09 70° W 11:00:28 10° S
COSMO-SKYMED 1 3.3 10:52:24 10° SSW 10:56:16 31° W 11:00:10 10° NNW
H-2A R/B 4.0 10:55:01 10° NNW 10:57:43 20° WNW 11:00:26 10° WSW
Cosmos 1486 Rocket 4.0 10:53:05 10° SSW 10:58:21 64° WNW 11:03:36 10° NNE
Meteor PRIRODA 3.5 10:55:56 10° N 10:59:32 76° WNW 11:03:08 10° SSW
Cosmos 1328 Rocket 3.5 10:55:42 10° N 11:00:07 89° E 11:04:28 10° S
Cosmos 2279 Rocket 3.9 10:57:06 10° NNW 11:03:17 73° W 11:09:25 10° S
CZ-4B R/B 3.5 11:01:11 10° SE 11:04:06 28° ENE 11:07:00 10° NNE
DELTA 2 R/B (1) 4.4 11:03:52 10° SW 11:09:14 52° SSE 11:14:37 10° E
Cosmos 2369 Rocket 2.4 11:05:21 10° SW 11:10:43 48° WNW 11:16:09 10° NNE
Nadezhda 4 Rocket 4.3 11:04:53 10° S 11:10:58 72° E 11:17:09 10° NNE
Cosmos 1939 Rocket 2.8 11:11:58 10° N 11:15:56 85° WNW 11:19:49 10° SSW
Cosmos 1340 Rocket 4.2 11:15:28 10° SSE 11:19:11 43° E 11:22:57 10° NNE
Cosmos 1408 Rocket 3.5 11:15:48 10° S 11:20:06 80° W 11:24:26 10° N
SL-27 R/B 4.5 11:17:36 10° N 11:20:45 28° ENE 11:23:51 10° SE
Cosmos 1743 Rocket 4.3 11:20:51 10° S 11:25:11 59° E 11:29:30 10° NNE
CZ-2C R/B 3.1 11:22:27 10° N 11:27:05 48° WNW 11:31:53 10° SW
Meteor 1-27 Rocket 4.0 11:22:29 10° N 11:28:07 74° E 11:33:49 10° SSE
Envisat 4.4 11:25:09 10° NNW 11:28:17 17° WNW 11:31:25 10° W
ADEOS 4.3 11:24:23 10° N 11:28:58 32° WNW 11:33:33 10° SW
Cosmos 2098 Rocket 4.1 11:27:21 10° WSW 11:30:02 19° WNW 11:33:09 10° NNW
